SCP
0 0 0 0 0 0 0 0 0 0 0 0 0 0 0 0 0 0 1 1 1 1 1 1 2 2 3 3 3 3 3 3 3 4 4 4 4 3 3 3 3 3 3
0 0 0 0 0 1 1 1 1 1 1 1 1 1 1 1 1 1 1 1 1 1 1 1 1 2 2 3 3 3 3 4 4 4 4 4 4 3 3 3 3 3 3
0 0 0 0 1 1 1 1 1 1 1 1 1 1 1 1 1 1 1 1 1 1 1 1 1 1 2 2 3 3 3 4 4 4 4 4 4 4 3 3 4 4 4
1 1 1 1 1 1 1 1 1 1 1 1 1 2 2 2 2 2 1 1 1 1 1 0 0 1 1 1 2 2 3 3 4 4 4 5 6 6 5 4 4 4 4
1 1 1 1 1 1 1 1 1 1 1 1 1 1 2 2 2 2 1 1 1 1 1 1 0 0 0 0 1 1 1 2 3 3 4 5 6 7 6 5 5 5 5
0 0 1 1 0 0 0 1 1 1 1 1 1 1 1 1 1 1 1 1 1 1 1 1 0 0 0 0 0 0 0 1 1 2 3 4 5 6 6 6 6 6 6
0 0 0 0 0 0 0 0 0 0 0 0 0 0 0 0 0 0 0 0 0 0 0 0 0 0 0 0 0 0 0 0 0 1 1 3 4 5 5 5 6 6 6
0 0 0 0 0 0 0 0 0 0 0 0 0 0 0 0 0 0 0 0 0 0 0 0 0 0 0 0 0 0 0 0 0 0 1 1 3 4 5 5 5 5 6
0 0 0 0 0 0 0 0 0 0 0 0 0 0 0 0 0 0 0 0 0 0 0 0 0 0 0 0 0 0 0 0 0 0 0 1 1 3 3 4 4 4 5
0 0 0 0 0 0 0 0 0 0 0 0 0 0 0 0 0 0 0 0 0 0 0 0 0 0 0 0 0 0 0 0 0 0 0 0 1 1 2 2 3 3 3
0 0 0 0 0 0 0 0 0 0 0 0 0 0 0 0 0 0 0 0 0 0 0 0 0 0 0 0 0 0 0 0 0 0 0 0 0 0 1 1 1 2 2
0 0 0 0 0 0 0 0 0 0 0 0 0 0 0 0 0 0 0 0 0 0 0 0 0 0 0 0 0 0 0 0 0 0 0 0 0 0 0 1 1 1 1
0 0 0 0 0 0 0 0 0 0 0 0 0 0 0 0 0 0 0 0 0 0 0 0 0 0 0 0 0 0 0 0 0 0 0 0 0 0 0 0 0 1 1
0 0 0 0 0 0 0 0 0 0 0 0 0 0 0 0 0 0 0 0 0 0 0 0 0 0 0 0 0 0 0 0 0 0 0 0 0 0 0 0 0 0 0
0 0 0 0 0 0 0 0 0 0 0 0 0 0 0 0 0 0 0 0 0 0 0 0 0 0 0 0 0 0 0 0 0 0 0 0 0 0 0 0 0 0 0
0 0 0 0 0 0 0 0 0 0 0 0 0 0 0 0 0 0 0 0 0 0 0 0 0 0 0 0 0 0 0 0 0 0 0 0 0 0 0 0 0 0 0
0 0 0 0 0 0 0 0 0 0 0 0 0 0 0 0 0 0 0 0 0 0 0 0 0 0 0 0 0 0 0 0 0 0 0 0 0 0 0 0 0 0 0
0 0 0 0 0 0 0 0 0 0 0 0 0 0 0 0 0 0 0 0 0 0 0 0 0 0 0 0 0 0 0 0 0 0 0 0 0 0 0 0 0 0 0
0 0 0 0 0 0 0 0 0 0 0 0 0 0 0 0 0 0 0 0 0 0 0 0 0 0 0 0 0 0 0 0 0 0 0 0 0 0 0 0 0 0 0
0 0 0 0 0 0 0 0 0 0 0 0 0 0 0 0 0 0 0 0 0 0 0 0 0 0 0 0 0 0 0 0 0 0 0 0 0 0 0 0 0 0 0
0 0 0 0 0 0 0 0 0 0 0 0 0 0 0 0 0 0 0 0 0 0 0 0 0 0 0 0 0 0 0 0 0 0 0 0 0 0 0 0 0 0 0
0 0 0 0 0 0 0 0 0 0 0 0 0 0 0 0 0 0 0 0 0 0 0 0 0 0 0 0 0 0 0 0 0 0 0 0 0 0 0 0 0 0 0
0 0 0 0 0 0 0 0 0 0 0 0 0 0 0 0 0 0 0 0 0 0 0 0 0 0 0 0 0 0 0 0 0 0 0 0 0 0 0 0 0 0 0
0 0 0 0 0 0 0 0 0 0 0 0 0 0 0 0 0 0 0 0 0 0 0 0 0 0 0 0 0 0 0 0 0 0 0 0 0 0 0 0 0 0 0
0 0 0 0 0 0 0 0 0 0 0 0 0 0 0 0 0 0 0 0 0 0 0 0 0 0 0 0 0 0 0 0 0 0 0 0 0 0 0 0 0 0 0
0 0 0 0 0 0 0 0 0 0 0 0 0 0 0 0 0 0 0 0 0 0 0 0 0 0 0 0 0 0 0 0 0 0 0 0 0 0 0 0 0 0 0
Wind_Speed
2 1 1 2 4 3 3 3 5 4 5 6 6 6 8 7 7 7 2 7 4 2 2 1 1 1 2 2 4 5 6 7 8 9 10 11 11 12 12 12 12 12 11
1 2 2 1 2 3 4 5 5 5 5 5 7 7 8 9 6 7 8 4 6 3 2 1 2 2 3 4 5 5 6 7 8 8 9 10 11 13 13 13 13 13 12
1 1 1 1 2 2 2 3 4 4 4 5 7 7 7 7 8 7 8 7 5 7 4 1 2 4 5 6 7 7 8 9 9 9 10 10 11 12 14 15 15 15 14
3 1 2 3 3 3 3 3 4 5 5 6 7 7 7 6 8 8 9 9 8 6 5 6 4 6 8 9 10 10 11 11 11 12 12 12 13 13 14 16 17 16 16
5 3 4 4 3 3 4 4 4 6 6 6 8 7 8 8 8 10 10 11 10 9 10 5 8 10 11 12 13 13 14 15 15 15 15 15 15 15 15 16 17 18 18
6 5 5 5 5 4 4 4 3 3 5 5 9 9 9 9 9 10 10 10 9 11 11 11 9 9 12 13 14 16 17 18 18 18 19 19 18 17 17 17 18 19 21
7 5 4 4 4 3 4 4 5 6 6 5 9 11 11 12 11 8 9 9 10 11 11 12 11 10 8 11 14 16 16 18 19 21 22 22 21 19 18 18 19 20 21
5 4 4 2 3 2 2 4 4 7 7 6 7 10 11 11 8 7 6 8 10 10 11 12 12 11 11 10 8 11 15 17 19 21 22 23 23 22 21 20 21 21 22
5 4 3 4 3 5 4 5 5 6 7 8 5 7 9 9 10 7 8 8 9 10 11 11 12 12 12 10 11 12 12 13 17 19 21 22 23 23 23 23 22 23 24
3 3 3 3 4 4 4 5 5 6 6 7 5 4 6 9 8 8 8 9 10 11 12 11 12 12 12 11 9 12 13 14 16 18 19 20 21 22 23 23 23 23 25
2 2 3 3 3 3 4 5 5 6 6 6 7 7 7 7 10 11 11 10 11 11 11 11 11 11 12 12 11 12 8 10 14 17 18 18 19 20 21 22 22 23 23
1 2 2 2 3 4 3 4 5 5 5 6 7 7 7 8 9 10 12 12 11 11 11 10 11 11 10 11 13 10 7 12 14 16 16 17 18 19 19 20 21 21 21
0 2 3 3 4 3 4 5 5 6 6 6 7 7 7 8 9 10 11 12 13 12 13 12 10 9 10 10 10 6 10 13 14 14 15 16 17 17 18 18 19 19 18
2 2 3 4 4 5 6 5 7 6 5 7 9 8 9 10 9 10 11 12 13 12 13 15 12 12 10 9 7 3 11 11 12 13 14 15 16 17 17 17 16 15 14
1 2 3 5 5 6 6 7 7 8 8 9 10 10 10 9 9 9 9 10 12 14 14 14 13 13 10 10 8 10 12 9 11 14 15 16 17 17 16 16 15 13 10
2 4 4 5 6 7 7 8 9 8 9 10 10 12 12 11 10 10 10 10 11 12 14 13 14 14 14 12 12 13 13 11 16 18 18 16 16 17 17 16 15 13 10
3 5 6 6 7 8 9 9 11 12 13 13 13 14 15 15 12 11 11 11 12 12 14 14 14 14 16 15 13 12 12 12 12 14 14 14 14 15 16 16 15 14 12
6 7 8 9 10 11 11 12 13 13 14 15 15 16 16 14 15 13 12 14 13 13 14 17 14 14 15 14 14 14 13 11 12 9 8 11 14 14 12 11 10 10 9
8 9 10 11 12 12 12 12 13 13 14 14 15 16 16 16 16 14 15 14 13 13 13 14 14 12 11 12 14 14 14 11 12 10 8 12 14 13 11 8 8 7 7
9 11 12 12 13 13 12 11 11 13 14 14 15 15 16 16 16 15 13 14 13 13 13 12 12 11 11 12 12 11 10 9 9 8 8 7 8 11 12 12 11 12 11
10 10 11 11 10 9 7 10 12 14 15 16 16 15 15 17 19 16 13 13 14 11 11 11 12 12 12 11 11 9 9 9 9 7 6 6 6 7 8 12 14 15 14
8 8 8 8 8 6 9 10 12 14 15 15 14 14 14 15 15 16 18 19 18 16 14 13 12 13 15 14 11 9 8 8 7 4 5 5 4 5 5 5 4 7 12
7 7 7 8 9 5 6 9 13 15 15 13 13 13 12 12 15 13 14 17 17 20 21 17 16 16 16 14 12 11 9 9 6 2 2 3 4 5 5 5 6 11 16
7 7 7 8 9 6 3 9 16 15 14 13 13 13 13 14 13 13 13 13 15 16 16 13 12 14 14 13 12 12 10 6 2 2 3 3 3 4 4 4 7 13 19
7 7 7 8 8 7 5 10 14 13 12 15 15 15 15 15 14 14 14 14 15 14 11 10 12 13 13 12 9 5 4 3 2 2 2 3 2 3 4 4 7 15 19
7 7 7 7 8 8 7 10 13 10 11 12 13 13 15 15 15 14 13 13 14 12 9 9 7 6 5 4 4 2 0 0 0 1 1 2 2 2 3 2 5 8 10
Wind_Direction
211 209 272 305 295 311 265 269 289 296 284 268 272 278 283 285 281 279 177 119 111 100 101 100 62 347 309 288 275 268 262 259 258 251 244 238 235 233 230 226 222 219 217
283 265 238 277 312 326 342 323 320 304 288 300 290 287 286 287 277 279 280 156 136 119 79 31 359 334 310 299 295 290 282 275 271 266 260 251 244 239 235 230 225 220 216
60 277 348 320 11 2 344 313 320 299 297 294 284 284 280 279 286 277 277 277 230 166 163 213 299 303 296 290 287 287 286 286 284 278 270 263 255 249 243 236 229 223 217
59 16 36 41 19 356 351 354 329 319 318 307 304 300 291 282 270 269 267 262 271 272 217 196 243 278 282 281 280 279 278 277 279 280 275 269 263 256 249 243 235 226 219
67 57 50 44 10 16 9 354 7 334 322 316 303 289 286 288 285 272 270 271 270 268 275 237 240 256 265 271 275 277 276 275 274 274 274 271 267 260 252 246 239 230 222
63 61 71 44 17 22 17 17 350 330 310 305 299 294 280 274 273 272 270 267 268 269 272 279 274 257 251 265 273 277 278 277 276 275 273 271 270 266 257 250 243 234 225
69 51 61 61 19 33 7 343 324 300 282 302 292 285 275 264 257 261 266 274 274 277 279 278 275 281 279 266 262 267 274 278 280 278 275 273 271 270 266 257 249 240 229
63 65 39 26 24 340 326 332 326 313 309 304 302 302 294 284 265 267 279 280 290 296 290 286 287 284 281 284 282 278 276 277 279 279 277 275 273 269 267 263 255 245 235
73 55 39 4 343 313 347 334 323 323 319 309 308 310 308 313 328 302 295 289 290 288 289 290 285 283 280 279 281 271 271 280 281 281 281 278 277 274 269 264 260 252 242
79 60 30 14 345 341 349 314 1 317 308 306 312 292 292 310 300 298 293 291 289 283 280 283 285 283 277 272 271 274 268 268 278 282 283 281 281 278 273 269 265 259 249
83 42 27 11 350 335 354 336 328 318 312 314 317 310 303 290 277 279 289 290 284 281 282 281 281 281 280 273 269 267 264 275 280 282 284 284 284 285 282 277 271 265 256
102 54 4 350 320 334 330 317 315 301 317 323 308 305 300 297 296 295 294 290 288 289 292 292 284 276 274 271 267 272 273 274 276 280 283 286 287 287 286 284 279 272 262
1 62 329 318 319 320 307 306 294 307 300 300 291 298 303 298 295 295 295 297 299 298 296 287 284 287 284 279 272 253 253 261 268 274 280 284 286 287 286 287 284 281 272
5 14 297 294 295 296 296 300 292 287 286 286 286 288 287 287 295 297 299 302 298 295 292 291 297 296 290 286 283 261 269 259 261 269 276 281 283 283 282 282 284 284 281
328 298 292 290 290 290 293 291 285 288 286 283 287 286 283 290 290 288 291 291 291 291 289 293 291 292 293 283 279 275 275 267 260 268 273 276 277 278 277 276 274 270 273
334 307 299 294 291 288 285 285 287 288 291 286 287 290 290 287 289 287 284 283 281 281 283 286 286 284 287 285 279 280 280 272 255 255 258 265 270 273 274 269 263 254 251
303 291 294 293 290 288 286 284 285 291 289 292 293 293 295 295 292 291 287 282 279 278 279 281 280 280 281 282 285 281 275 270 267 246 242 256 266 270 270 265 252 243 238
287 290 290 288 287 287 288 287 289 293 295 296 298 299 299 299 295 291 287 282 280 278 277 280 279 279 280 283 281 279 276 277 282 277 244 251 261 265 265 260 242 233 231
285 288 289 288 290 292 292 293 295 298 300 301 303 302 301 300 295 291 289 287 285 282 278 279 283 284 283 280 282 280 280 285 286 280 244 238 246 253 254 253 245 240 237
291 291 293 295 298 300 301 309 314 312 307 304 303 301 298 296 295 295 293 288 284 281 280 282 283 283 280 281 281 283 287 289 288 286 276 263 247 242 243 242 240 242 243
305 309 309 310 313 312 352 351 328 313 308 305 302 302 301 300 294 288 284 285 286 285 285 283 284 285 283 284 284 289 288 290 284 266 259 249 241 240 226 227 233 238 242
340 340 337 333 330 354 34 352 321 312 307 304 305 305 300 293 293 291 281 277 279 283 286 285 283 281 283 284 285 283 282 279 272 235 242 250 236 248 253 255 255 258 257
358 349 344 338 334 14 33 336 324 311 303 305 303 297 294 295 297 292 294 293 284 277 274 276 278 279 283 285 284 279 269 265 260 177 193 250 227 240 247 258 277 278 272
351 344 342 342 332 355 27 326 324 309 308 307 304 299 296 294 291 288 288 283 279 277 274 274 277 282 284 282 272 265 267 262 215 167 204 256 240 250 261 273 281 288 285
351 342 353 343 335 341 6 322 320 319 312 312 311 308 305 299 292 284 286 285 284 285 283 283 286 288 290 289 276 249 223 207 205 174 190 256 274 283 278 282 305 310 304
359 349 356 344 337 335 338 314 317 319 312 311 308 304 297 292 292 289 290 288 289 297 311 312 306 308 315 345 10 30 53 186 183 160 173 262 282 296 291 302 317 326 322